Flag for Switzerland Weather past 2 weeks in Onex, Geneva, Switzerland

Now
66 °F

Passing clouds.


Feels Like: 66 °F
Forecast: 52 / 72 °F
Wind: 2 mph from North

Location: Geneva Cointrin Airport

Current Time: Sep 16, 2014 at 10:22:11 AM

Latest Report: Sep 16, 2014 at 9:50 AM


Visibility: N/A

Pressure: 30.01 "Hg

Humidity: 73%

Dew point: 57 °F

Location of OnexLocation

Historic Weather in Onex — Graph

°F

Onex temperature yesterday

Maximum temperature yesterday: 77 °F (at 4:20 PM)
Minimum temperature yesterday: 52 °F (at 5:20 AM)
Average temperature yesterday: 63 °F

Past Weeks' High & Low Weather Summary

 TemperatureHumidityPressure
High84 °F (Sep 8, 3:20 PM)100% (Sep 4, 5:20 AM)30.12 "Hg (Sep 4, 5:20 AM)
Low52 °F (Sep 2, 6:20 AM)40% (Sep 2, 4:20 PM)29.89 "Hg (Sep 6, 4:50 PM)
Average64 °F75%30.01 "Hg
* Reported Sep 1 9:20 AM — Sep 16 9:20 AM, Onex, Weather by CustomWeather, © 2014

Note: Actual official high and low records may vary slightly from our data, if they occured in-between our weather recording intervals... More about our weather records

Advertising

Onex weather history for previous 24 hours

 ConditionsComfort  
Time TempWeatherWind HumidityBarometerVisibility
9:20 AM
Sep 16
64 °FScattered clouds.1 mph78%30.01 "HgN/A
8:50 AM63 °FScattered clouds.No wind83%30.01 "HgN/A
8:20 AM59 °FScattered clouds.No wind94%30.01 "HgN/A
7:50 AM57 °FPassing clouds.1 mph100%30.01 "HgN/A
7:20 AM55 °FPassing clouds.1 mph100%30.01 "HgN/A
6:50 AM55 °FPassing clouds.3 mph100%30.01 "HgN/A
6:20 AM55 °FFog.1 mph100%30.01 "Hg6 mi
5:50 AM57 °FPassing clouds.No wind94%29.98 "Hg5 mi
5:20 AM57 °FPassing clouds.1 mph100%30.01 "Hg6 mi
4:50 AM57 °FPassing clouds.1 mph94%30.01 "HgN/A
4:20 AM57 °FPassing clouds.1 mph100%30.01 "HgN/A
3:50 AM57 °FPassing clouds.No wind100%30.01 "HgN/A
2:50 AM59 °FPartly cloudy.2 mph94%30.01 "HgN/A
2:20 AM59 °FPassing clouds.1 mph94%30.01 "HgN/A
1:50 AM59 °FClear.3 mph94%30.01 "Hg10 mi
1:20 AM59 °FPassing clouds.No wind94%29.98 "HgN/A
12:50 AM61 °FPassing clouds.2 mph88%29.98 "HgN/A
12:20 AM61 °FPassing clouds.1 mph94%29.98 "HgN/A
11:50 PM
Sep 15
61 °FPartly cloudy.No wind94%30.01 "HgN/A
11:20 PM63 °FPassing clouds.No wind88%30.01 "HgN/A
10:50 PM63 °FPassing clouds.No wind83%30.01 "HgN/A
10:20 PM63 °FPassing clouds.1 mph88%29.98 "HgN/A
9:50 PM63 °FPassing clouds.2 mph88%29.98 "HgN/A
9:20 PM64 °FPassing clouds.2 mph83%29.98 "HgN/A
8:50 PM66 °FPassing clouds.2 mph78%29.98 "HgN/A
8:20 PM66 °FBroken clouds.3 mph78%29.95 "HgN/A
7:50 PM70 °FBroken clouds.2 mph69%29.95 "HgN/A
7:20 PM72 °FPartly sunny.3 mph61%29.95 "HgN/A
6:50 PM73 °FPartly sunny.7 mph57%29.95 "HgN/A
6:20 PM73 °FPartly sunny.9 mph53%29.92 "HgN/A
5:50 PM75 °FScattered clouds.7 mph50%29.92 "HgN/A
5:20 PM75 °FScattered clouds.7 mph54%29.95 "HgN/A
4:20 PM77 °FPassing clouds.6 mph51%29.95 "HgN/A
3:50 PM75 °FPassing clouds.2 mph57%29.95 "HgN/A
3:20 PM75 °FScattered clouds.5 mph57%29.95 "HgN/A
2:50 PM73 °FScattered clouds.2 mph61%29.98 "HgN/A
2:20 PM72 °FScattered clouds.3 mph65%29.98 "HgN/A
1:50 PM70 °FScattered clouds.5 mph64%30.01 "HgN/A
1:20 PM70 °FPassing clouds.5 mph69%30.01 "HgN/A
12:50 PM68 °FPassing clouds.6 mph69%30.01 "HgN/A
12:20 PM66 °FPassing clouds.5 mph73%30.01 "HgN/A
11:50 AM66 °FPassing clouds.6 mph68%30.04 "HgN/A
11:20 AM66 °FPassing clouds.5 mph73%30.04 "HgN/A
10:50 AM64 °FPassing clouds.3 mph78%30.04 "HgN/A
10:20 AM63 °FScattered clouds.3 mph77%30.04 "HgN/A
Weather by CustomWeather, © 2014

See weather overviewHow to use our weather pages